Year,Month,Day,Hour,Minute,Value (Times are PST for temperature in C)
2009,07,11,07,40,12.80
2009,07,11,07,41,12.80
2009,07,11,07,42,12.90
2009,07,11,07,43,13.00
2009,07,11,07,44,13.00
2009,07,11,07,45,13.10
2009,07,11,07,46,13.20
2009,07,11,07,47,13.30
2009,07,11,07,48,13.30
2009,07,11,07,49,13.40
2009,07,11,07,50,13.40
2009,07,11,07,51,13.50
2009,07,11,07,52,13.60
2009,07,11,07,53,13.70
2009,07,11,07,54,13.70
2009,07,11,07,55,13.80
2009,07,11,07,56,13.90
2009,07,11,07,57,13.90
2009,07,11,07,58,14.00
2009,07,11,07,59,14.10
2009,07,11,08,00,14.20
2009,07,11,08,01,14.30
2009,07,11,08,02,14.40
2009,07,11,08,03,14.60
2009,07,11,08,04,14.70
2009,07,11,08,05,14.80
2009,07,11,08,06,15.00
2009,07,11,08,07,15.00
2009,07,11,08,08,15.10
2009,07,11,08,09,15.20
2009,07,11,08,10,15.40
2009,07,11,08,11,15.50
2009,07,11,08,12,15.60
2009,07,11,08,13,15.70
2009,07,11,08,14,15.90
2009,07,11,08,15,16.00
2009,07,11,08,16,16.10
2009,07,11,08,17,16.20
2009,07,11,08,18,16.20
2009,07,11,08,19,16.30
2009,07,11,08,20,16.30
2009,07,11,08,21,16.40
2009,07,11,08,22,16.40
2009,07,11,08,23,16.50
2009,07,11,08,24,16.60
2009,07,11,08,25,16.70
2009,07,11,08,26,16.80
2009,07,11,08,27,16.90
2009,07,11,08,28,17.00
2009,07,11,08,29,17.10
2009,07,11,08,30,17.20
2009,07,11,08,31,17.20
2009,07,11,08,32,17.30
2009,07,11,08,33,17.40
2009,07,11,08,34,17.40
2009,07,11,08,35,17.40
2009,07,11,08,36,17.40
2009,07,11,08,37,17.50
2009,07,11,08,38,17.50
2009,07,11,08,39,17.60
2009,07,11,08,40,17.60
2009,07,11,08,41,17.60
2009,07,11,08,42,17.60
2009,07,11,08,43,17.60
2009,07,11,08,44,17.60
2009,07,11,08,45,17.70
2009,07,11,08,46,17.70
2009,07,11,08,47,17.70
2009,07,11,08,48,17.70
2009,07,11,08,49,17.70
2009,07,11,08,50,17.70
2009,07,11,08,51,17.70
2009,07,11,08,52,17.70
2009,07,11,08,53,17.80
2009,07,11,08,54,17.80
2009,07,11,08,55,17.80
2009,07,11,08,56,17.90
2009,07,11,08,57,18.00
2009,07,11,08,58,18.00
2009,07,11,08,59,18.10
2009,07,11,09,00,18.10
2009,07,11,09,01,18.20
2009,07,11,09,02,18.30
2009,07,11,09,03,18.40
2009,07,11,09,04,18.40
2009,07,11,09,05,18.50
2009,07,11,09,06,18.60
2009,07,11,09,07,18.60
2009,07,11,09,08,18.70
2009,07,11,09,09,18.70
2009,07,11,09,10,18.80
2009,07,11,09,11,18.80
2009,07,11,09,12,18.80
2009,07,11,09,13,18.80
2009,07,11,09,14,18.80
2009,07,11,09,15,18.90
2009,07,11,09,16,18.90
2009,07,11,09,17,19.00
2009,07,11,09,18,19.00
2009,07,11,09,19,19.10
2009,07,11,09,20,19.20
2009,07,11,09,21,19.20
2009,07,11,09,22,19.30
2009,07,11,09,23,19.30
2009,07,11,09,24,19.40
2009,07,11,09,25,19.40
2009,07,11,09,26,19.50
2009,07,11,09,27,19.50
2009,07,11,09,28,19.60
2009,07,11,09,29,19.70
2009,07,11,09,30,19.70
2009,07,11,09,31,19.70
2009,07,11,09,32,19.80
2009,07,11,09,33,19.80
2009,07,11,09,34,19.80
2009,07,11,09,35,19.90
2009,07,11,09,36,19.90
2009,07,11,09,37,20.00
2009,07,11,09,38,20.10
2009,07,11,09,39,20.20
2009,07,11,09,40,20.20
2009,07,11,09,41,20.30
2009,07,11,09,42,20.40
2009,07,11,09,43,20.50
2009,07,11,09,44,20.50
2009,07,11,09,45,20.60
2009,07,11,09,46,20.70
2009,07,11,09,47,20.80
2009,07,11,09,48,20.90
2009,07,11,09,49,21.00
2009,07,11,09,50,21.00
2009,07,11,09,51,21.10
2009,07,11,09,52,21.10
2009,07,11,09,53,21.20
2009,07,11,09,54,21.20
2009,07,11,09,55,21.20
2009,07,11,09,56,21.20
2009,07,11,09,57,21.20
2009,07,11,09,58,21.30
2009,07,11,09,59,21.40
2009,07,11,10,00,21.50
2009,07,11,10,01,21.60
2009,07,11,10,02,21.80
2009,07,11,10,03,21.90
2009,07,11,10,04,22.10
2009,07,11,10,05,22.20
2009,07,11,10,06,22.30
2009,07,11,10,07,22.30
2009,07,11,10,08,22.30
2009,07,11,10,09,22.30
2009,07,11,10,10,22.30
2009,07,11,10,11,22.40
2009,07,11,10,12,22.40
2009,07,11,10,13,22.40
2009,07,11,10,14,22.50
2009,07,11,10,15,22.60
2009,07,11,10,16,22.60
2009,07,11,10,17,22.60
2009,07,11,10,18,22.60
2009,07,11,10,19,22.60
2009,07,11,10,20,22.70
2009,07,11,10,21,22.70
2009,07,11,10,22,22.80
2009,07,11,10,23,22.80
2009,07,11,10,24,22.90
2009,07,11,10,25,22.90
2009,07,11,10,26,23.00
2009,07,11,10,27,23.10
2009,07,11,10,28,23.10
2009,07,11,10,29,23.10
2009,07,11,10,30,23.20
2009,07,11,10,31,23.20
2009,07,11,10,32,23.30
2009,07,11,10,33,23.40
2009,07,11,10,34,23.50
2009,07,11,10,35,23.60
2009,07,11,10,36,23.70
2009,07,11,10,37,23.80
2009,07,11,10,38,23.90
2009,07,11,10,39,23.90
2009,07,11,10,40,23.80
2009,07,11,10,41,23.80
2009,07,11,10,42,23.80
2009,07,11,10,43,23.90
2009,07,11,10,44,23.90
2009,07,11,10,45,23.90
2009,07,11,10,46,23.90
2009,07,11,10,47,23.90
2009,07,11,10,48,23.90
2009,07,11,10,49,23.90
2009,07,11,10,50,23.90
2009,07,11,10,51,23.90
2009,07,11,10,52,24.00
2009,07,11,10,53,24.10
2009,07,11,10,54,24.20
2009,07,11,10,55,24.30
2009,07,11,10,56,24.40
2009,07,11,10,57,24.50
2009,07,11,10,58,24.60
2009,07,11,10,59,24.60
2009,07,11,11,00,24.70
2009,07,11,11,01,24.80
2009,07,11,11,02,24.80
2009,07,11,11,03,24.80
2009,07,11,11,04,24.70
2009,07,11,11,05,24.70
2009,07,11,11,06,24.70
2009,07,11,11,07,24.70
2009,07,11,11,08,24.80
2009,07,11,11,09,24.80
2009,07,11,11,10,24.80
2009,07,11,11,11,24.90
2009,07,11,11,12,24.90
2009,07,11,11,13,24.90
2009,07,11,11,14,25.00
2009,07,11,11,15,24.90
2009,07,11,11,16,24.90
2009,07,11,11,17,25.00
2009,07,11,11,18,25.10
2009,07,11,11,19,25.10
2009,07,11,11,20,25.20
2009,07,11,11,21,25.20
2009,07,11,11,22,25.30
2009,07,11,11,23,25.30
2009,07,11,11,24,25.30
2009,07,11,11,25,25.40
2009,07,11,11,26,25.50
2009,07,11,11,27,25.50
2009,07,11,11,28,25.60
2009,07,11,11,29,25.70
2009,07,11,11,30,25.80
2009,07,11,11,31,25.80
2009,07,11,11,32,25.80
2009,07,11,11,33,25.80
2009,07,11,11,34,25.70
2009,07,11,11,35,25.60
2009,07,11,11,36,25.60
2009,07,11,11,37,25.60
2009,07,11,11,38,25.60
2009,07,11,11,39,25.70
2009,07,11,11,40,25.80
2009,07,11,11,41,25.90
2009,07,11,11,42,26.00
2009,07,11,11,43,26.10
2009,07,11,11,44,26.30
2009,07,11,11,45,26.40
2009,07,11,11,46,26.50
2009,07,11,11,47,26.60
2009,07,11,11,48,26.70
2009,07,11,11,49,26.70
2009,07,11,11,50,26.80
2009,07,11,11,51,26.80
2009,07,11,11,52,26.80
2009,07,11,11,53,27.00
2009,07,11,11,54,27.10
2009,07,11,11,55,27.10
2009,07,11,11,56,27.20
2009,07,11,11,57,27.20
2009,07,11,11,58,27.20
2009,07,11,11,59,27.00
2009,07,11,12,00,26.80
2009,07,11,12,01,26.70
2009,07,11,12,02,26.60
2009,07,11,12,03,26.50
2009,07,11,12,04,26.50
2009,07,11,12,05,26.50
2009,07,11,12,06,26.40
2009,07,11,12,07,26.40
2009,07,11,12,08,26.50
2009,07,11,12,09,26.60
2009,07,11,12,10,26.80
2009,07,11,12,11,26.90
2009,07,11,12,12,27.00
2009,07,11,12,13,27.10
2009,07,11,12,14,27.20
2009,07,11,12,15,27.30
2009,07,11,12,16,27.30
2009,07,11,12,17,27.40
2009,07,11,12,18,27.40
2009,07,11,12,19,27.40
2009,07,11,12,20,27.40
2009,07,11,12,21,27.40
2009,07,11,12,22,27.40
2009,07,11,12,23,27.50
2009,07,11,12,24,27.60
2009,07,11,12,25,27.60
2009,07,11,12,26,27.70
2009,07,11,12,27,27.80
2009,07,11,12,28,27.90
2009,07,11,12,29,27.90
2009,07,11,12,30,28.00
2009,07,11,12,31,28.10
2009,07,11,12,32,28.30
2009,07,11,12,33,28.40
2009,07,11,12,34,28.40
2009,07,11,12,35,28.50
2009,07,11,12,36,28.60
2009,07,11,12,37,28.60
2009,07,11,12,38,28.70
2009,07,11,12,39,28.70
2009,07,11,12,40,28.70
2009,07,11,12,41,28.60
2009,07,11,12,42,28.50
2009,07,11,12,43,28.40
2009,07,11,12,44,28.40
2009,07,11,12,45,28.30
2009,07,11,12,46,28.30
2009,07,11,12,47,28.20
2009,07,11,12,48,28.10
2009,07,11,12,49,28.10
2009,07,11,12,50,28.20
2009,07,11,12,51,28.20
2009,07,11,12,52,28.40
2009,07,11,12,53,28.50
2009,07,11,12,54,28.60
2009,07,11,12,55,28.80
2009,07,11,12,56,28.90
2009,07,11,12,57,29.00
2009,07,11,12,58,29.10
2009,07,11,12,59,29.30
2009,07,11,13,00,29.30
2009,07,11,13,01,29.30
2009,07,11,13,02,29.30
2009,07,11,13,03,29.10
2009,07,11,13,04,29.00
2009,07,11,13,05,29.00
2009,07,11,13,06,28.90
2009,07,11,13,07,28.90
2009,07,11,13,08,29.00
2009,07,11,13,09,29.00
2009,07,11,13,10,29.10
2009,07,11,13,11,29.20
2009,07,11,13,12,29.30
2009,07,11,13,13,29.30
2009,07,11,13,14,29.40
2009,07,11,13,15,29.40
2009,07,11,13,16,29.50
2009,07,11,13,17,29.50
2009,07,11,13,18,29.60
2009,07,11,13,19,29.70
2009,07,11,13,20,29.90
2009,07,11,13,21,30.00
2009,07,11,13,22,30.10
2009,07,11,13,23,30.10
2009,07,11,13,24,30.10
2009,07,11,13,25,30.20
2009,07,11,13,26,30.10
2009,07,11,13,27,30.00
2009,07,11,13,28,30.00
2009,07,11,13,29,30.00
2009,07,11,13,30,30.00
2009,07,11,13,31,30.00
2009,07,11,13,32,30.00
2009,07,11,13,33,30.00
2009,07,11,13,34,30.10
2009,07,11,13,35,30.00
2009,07,11,13,36,30.00
2009,07,11,13,37,29.90
2009,07,11,13,38,29.90
2009,07,11,13,39,29.80
2009,07,11,13,40,29.80
2009,07,11,13,41,29.80
2009,07,11,13,42,29.80
2009,07,11,13,43,29.90
2009,07,11,13,44,29.90
2009,07,11,13,45,29.90
2009,07,11,13,46,29.90
2009,07,11,13,47,29.90
2009,07,11,13,48,30.00
2009,07,11,13,49,30.10
2009,07,11,13,50,30.20
2009,07,11,13,51,30.30
2009,07,11,13,52,30.30
2009,07,11,13,53,30.40
2009,07,11,13,54,30.50
2009,07,11,13,55,30.60
2009,07,11,13,56,30.60
2009,07,11,13,57,30.70
2009,07,11,13,58,30.70
2009,07,11,13,59,30.80
2009,07,11,14,00,30.80
2009,07,11,14,01,30.90
2009,07,11,14,02,30.90
2009,07,11,14,03,30.80
2009,07,11,14,04,30.70
2009,07,11,14,05,30.60
2009,07,11,14,06,30.50
2009,07,11,14,07,30.50
2009,07,11,14,08,30.60
2009,07,11,14,09,30.50
2009,07,11,14,10,30.40
2009,07,11,14,11,30.30
2009,07,11,14,12,30.30
2009,07,11,14,13,30.30
2009,07,11,14,14,30.30
2009,07,11,14,15,30.40
2009,07,11,14,16,30.50
2009,07,11,14,17,30.60
2009,07,11,14,18,30.80
2009,07,11,14,19,30.90
2009,07,11,14,20,31.10
2009,07,11,14,21,31.10
2009,07,11,14,22,31.20
2009,07,11,14,23,31.30
2009,07,11,14,24,31.30
2009,07,11,14,25,31.40
2009,07,11,14,26,31.40
2009,07,11,14,27,31.40
2009,07,11,14,28,31.50
2009,07,11,14,29,31.60
2009,07,11,14,30,31.70
2009,07,11,14,31,31.70
2009,07,11,14,32,31.60
2009,07,11,14,33,31.50
2009,07,11,14,34,31.20
2009,07,11,14,35,31.00
2009,07,11,14,36,30.90
2009,07,11,14,37,30.90
2009,07,11,14,38,30.90
2009,07,11,14,39,30.90
2009,07,11,14,40,30.90
2009,07,11,14,41,30.90
2009,07,11,14,42,30.90
2009,07,11,14,43,30.80
2009,07,11,14,44,30.80
2009,07,11,14,45,30.70
2009,07,11,14,46,30.60
2009,07,11,14,47,30.60
2009,07,11,14,48,30.60
2009,07,11,14,49,30.60
2009,07,11,14,50,30.60
2009,07,11,14,51,30.60
2009,07,11,14,52,30.60
2009,07,11,14,53,30.60
2009,07,11,14,54,30.60
2009,07,11,14,55,30.60
2009,07,11,14,56,30.60
2009,07,11,14,57,30.60
2009,07,11,14,58,30.60
2009,07,11,14,59,30.60
2009,07,11,15,00,30.60
2009,07,11,15,01,30.70
2009,07,11,15,02,30.80
2009,07,11,15,03,30.80
2009,07,11,15,04,30.90
2009,07,11,15,05,31.00
2009,07,11,15,06,31.00
2009,07,11,15,07,31.20
2009,07,11,15,08,31.20
2009,07,11,15,09,31.30
2009,07,11,15,10,31.40
2009,07,11,15,11,31.30
2009,07,11,15,12,31.20
2009,07,11,15,13,31.20
2009,07,11,15,14,31.10
2009,07,11,15,15,31.00
2009,07,11,15,16,30.80
2009,07,11,15,17,30.70
2009,07,11,15,18,30.60
2009,07,11,15,19,30.60
2009,07,11,15,20,30.70
2009,07,11,15,21,30.80
2009,07,11,15,22,30.90
2009,07,11,15,23,31.00
2009,07,11,15,24,31.10
2009,07,11,15,25,31.20
2009,07,11,15,26,31.30
2009,07,11,15,27,31.40
2009,07,11,15,28,31.50
2009,07,11,15,29,31.60
2009,07,11,15,30,31.70
2009,07,11,15,31,31.80
2009,07,11,15,32,32.00
2009,07,11,15,33,32.10
2009,07,11,15,34,32.10
2009,07,11,15,35,32.20
2009,07,11,15,36,32.20
2009,07,11,15,37,32.30
2009,07,11,15,38,32.30
2009,07,11,15,39,32.30
2009,07,11,15,40,32.20
2009,07,11,15,41,32.10
2009,07,11,15,42,32.00
2009,07,11,15,43,31.90
2009,07,11,15,44,31.90
2009,07,11,15,45,31.80
2009,07,11,15,46,31.80
2009,07,11,15,47,31.80
2009,07,11,15,48,31.80
2009,07,11,15,49,31.80
2009,07,11,15,50,31.80
2009,07,11,15,51,31.90
2009,07,11,15,52,32.00
2009,07,11,15,53,32.00
2009,07,11,15,54,32.10
2009,07,11,15,55,32.10
2009,07,11,15,56,32.00
2009,07,11,15,57,31.80
2009,07,11,15,58,31.60
2009,07,11,15,59,31.60
2009,07,11,16,00,31.60
2009,07,11,16,01,31.60
2009,07,11,16,02,31.70
2009,07,11,16,03,31.70
2009,07,11,16,04,31.70
2009,07,11,16,05,31.60
2009,07,11,16,06,31.40
2009,07,11,16,07,31.30
2009,07,11,16,08,31.10
2009,07,11,16,09,31.00
2009,07,11,16,10,31.00
2009,07,11,16,11,30.90
2009,07,11,16,12,30.90
2009,07,11,16,13,30.80
2009,07,11,16,14,30.80
2009,07,11,16,15,30.80
2009,07,11,16,16,30.80
2009,07,11,16,17,30.80
2009,07,11,16,18,30.90
2009,07,11,16,19,30.90
2009,07,11,16,20,30.90
2009,07,11,16,21,30.90
2009,07,11,16,22,30.90
2009,07,11,16,23,30.80
2009,07,11,16,24,30.80
2009,07,11,16,25,30.90
2009,07,11,16,26,30.80
2009,07,11,16,27,30.80
2009,07,11,16,28,30.70
2009,07,11,16,29,30.70
2009,07,11,16,30,30.60
2009,07,11,16,31,30.50
2009,07,11,16,32,30.40
2009,07,11,16,33,30.40
2009,07,11,16,34,30.40
2009,07,11,16,35,30.40
2009,07,11,16,36,30.40
2009,07,11,16,37,30.30
2009,07,11,16,38,30.30
2009,07,11,16,39,30.30
2009,07,11,16,40,30.20
2009,07,11,16,41,30.20
2009,07,11,16,42,30.20
2009,07,11,16,43,30.20
2009,07,11,16,44,30.20
2009,07,11,16,45,30.20
2009,07,11,16,46,30.20
2009,07,11,16,47,30.20
2009,07,11,16,48,30.20
2009,07,11,16,49,30.30
2009,07,11,16,50,30.30
2009,07,11,16,51,30.30
2009,07,11,16,52,30.30
2009,07,11,16,53,30.30
2009,07,11,16,54,30.30
2009,07,11,16,55,30.20
2009,07,11,16,56,30.20
2009,07,11,16,57,30.20
2009,07,11,16,58,30.20
2009,07,11,16,59,30.30
2009,07,11,17,00,30.30
2009,07,11,17,01,30.30
2009,07,11,17,02,30.30
2009,07,11,17,03,30.30
2009,07,11,17,04,30.30
2009,07,11,17,05,30.20
2009,07,11,17,06,30.20
2009,07,11,17,07,30.30
2009,07,11,17,08,30.30
2009,07,11,17,09,30.30
2009,07,11,17,10,30.30
2009,07,11,17,11,30.30
2009,07,11,17,12,30.30
2009,07,11,17,13,30.30
2009,07,11,17,14,30.30
2009,07,11,17,15,30.20
2009,07,11,17,16,30.10
2009,07,11,17,17,30.10
2009,07,11,17,18,30.00
2009,07,11,17,19,29.90
2009,07,11,17,20,29.90
2009,07,11,17,21,29.90
2009,07,11,17,22,29.90
2009,07,11,17,23,29.90
2009,07,11,17,24,29.90
2009,07,11,17,25,29.90
2009,07,11,17,26,29.90
2009,07,11,17,27,30.00
2009,07,11,17,28,30.10
2009,07,11,17,29,30.10
2009,07,11,17,30,30.10
2009,07,11,17,31,30.00
2009,07,11,17,32,30.00
2009,07,11,17,33,30.00
2009,07,11,17,34,30.00
2009,07,11,17,35,29.90
2009,07,11,17,36,29.80
2009,07,11,17,37,29.80
2009,07,11,17,38,29.80
2009,07,11,17,39,29.70
2009,07,11,17,40,29.70
2009,07,11,17,41,29.70
2009,07,11,17,42,29.70
2009,07,11,17,43,29.70
2009,07,11,17,44,29.70
2009,07,11,17,45,29.70
2009,07,11,17,46,29.70
2009,07,11,17,47,29.80
2009,07,11,17,48,29.80
2009,07,11,17,49,29.80
2009,07,11,17,50,29.80
2009,07,11,17,51,29.80
2009,07,11,17,52,29.80
2009,07,11,17,53,29.80
2009,07,11,17,54,29.80
2009,07,11,17,55,29.80
2009,07,11,17,56,29.80
2009,07,11,17,57,29.70
2009,07,11,17,58,29.70
2009,07,11,17,59,29.60
2009,07,11,18,00,29.60
2009,07,11,18,01,29.50
2009,07,11,18,02,29.50
2009,07,11,18,03,29.50
2009,07,11,18,04,29.50
2009,07,11,18,05,29.40
2009,07,11,18,06,29.40
2009,07,11,18,07,29.40
2009,07,11,18,08,29.30
2009,07,11,18,09,29.30
2009,07,11,18,10,29.30
2009,07,11,18,11,29.30
2009,07,11,18,12,29.20
2009,07,11,18,13,29.20
2009,07,11,18,14,29.20
2009,07,11,18,15,29.10
2009,07,11,18,16,29.10
2009,07,11,18,17,29.10
2009,07,11,18,18,29.10
2009,07,11,18,19,29.10
2009,07,11,18,20,29.10
2009,07,11,18,21,29.10
2009,07,11,18,22,29.10
2009,07,11,18,23,29.10
2009,07,11,18,24,29.10
2009,07,11,18,25,29.10
2009,07,11,18,26,29.10
2009,07,11,18,27,29.10
2009,07,11,18,28,29.10
2009,07,11,18,29,29.10
2009,07,11,18,30,29.10
2009,07,11,18,31,29.10
2009,07,11,18,32,29.10
2009,07,11,18,33,29.10
2009,07,11,18,34,29.20
2009,07,11,18,35,29.10
2009,07,11,18,36,29.10
2009,07,11,18,37,29.10
2009,07,11,18,38,29.10
2009,07,11,18,39,29.10
2009,07,11,18,40,29.00
2009,07,11,18,41,29.00
2009,07,11,18,42,29.00
2009,07,11,18,43,29.00
2009,07,11,18,44,28.90
2009,07,11,18,45,29.00
2009,07,11,18,46,29.00
2009,07,11,18,47,29.10
2009,07,11,18,48,29.10
2009,07,11,18,49,29.10
2009,07,11,18,50,29.10
2009,07,11,18,51,29.00
2009,07,11,18,52,29.00
2009,07,11,18,53,29.10
2009,07,11,18,54,29.00
2009,07,11,18,55,29.00
2009,07,11,18,56,28.90
2009,07,11,18,57,28.90
2009,07,11,18,58,28.80
2009,07,11,18,59,28.70
2009,07,11,19,00,28.70
2009,07,11,19,01,28.70
2009,07,11,19,02,28.70
2009,07,11,19,03,28.70
2009,07,11,19,04,28.70
2009,07,11,19,05,28.70
2009,07,11,19,06,28.70
2009,07,11,19,07,28.70
2009,07,11,19,08,28.70
2009,07,11,19,09,28.70
2009,07,11,19,10,28.70
2009,07,11,19,11,28.70
